Weather reports worldwide

Advertisment
Aboyne, United Kingdom (3080): temperature & dewpoint: 17.11.2020 22:00:00 - 23.11.2020 22:00:00 (GMT)Aboyne, United Kingdom (3080): temperature -20cm & temperature -100cm: 17.11.2020 22:00:00 - 23.11.2020 22:00:00 (GMT)Aboyne, United Kingdom (3080): wind speed & gusts: 17.11.2020 22:00:00 - 23.11.2020 22:00:00 (GMT)Aboyne, United Kingdom (3080): wind direction: 17.11.2020 22:00:00 - 23.11.2020 22:00:00 (GMT)Aboyne, United Kingdom (3080): reduced air pressure: 17.11.2020 22:00:00 - 23.11.2020 22:00:00 (GMT)Aboyne, United Kingdom (3080): visibility: 17.11.2020 22:00:00 - 23.11.2020 22:00:00 (GMT)Aboyne, United Kingdom (3080): precipitation: 17.11.2020 22:00:00 - 23.11.2020 22:00:00 (GMT)
Date & Time tt [°C] td [°C] tt -20cm [°C] tt -100cm [°C] ff [km/h] ff [kn] fx [km/h] fx [kn] dd ppp [hPa] vv [km] rr [mm]
23.11.2020 22:00:00 - - - - - - - - - - - -
23.11.2020 21:00:00 10,6 7,2 - - 13 7 - - WSW 1005,4 75 0,0
23.11.2020 20:00:00 10,8 6,7 - - 18 10 - - SW 1006,1 75 0,0
23.11.2020 19:00:00 10,2 5,8 - - 26 14 - - SW 1006,5 75 0,0
23.11.2020 18:00:00 9,5 5,4 - - 18 10 - - SW 1007,0 75 0,0
23.11.2020 17:00:00 9,3 5,5 - - 22 12 55 30 WSW 1007,6 75 0,0
23.11.2020 16:00:00 8,7 4,8 - - 24 13 - - SW 1007,8 75 0,0
23.11.2020 15:00:00 8,8 4,1 - - 21 11 - - SSW 1009,3 - 0,0
23.11.2020 14:00:00 8,8 3,7 - - 22 12 57 31 SW 1010,4 - 0,0
23.11.2020 13:00:00 8,0 2,7 - - 21 11 48 26 SW 1011,1 - 0,0
23.11.2020 12:00:00 7,3 1,9 - - 22 12 67 36 SW 1012,4 - 0,0
23.11.2020 11:00:00 7,3 1,8 - - 52 28 68 37 SW 1013,4 - 0,0
23.11.2020 10:00:00 7,4 2,0 - - 34 18 54 29 SW 1014,3 50 0,0
23.11.2020 09:00:00 7,7 2,7 5,9 8,2 21 11 - - SW 1015,0 30 0,0
23.11.2020 08:00:00 7,5 3,2 - - 29 16 48 26 SW 1015,7 50 0,0
23.11.2020 07:00:00 7,6 3,3 - - 29 16 46 25 SW 1015,9 50 0,0
23.11.2020 06:00:00 5,3 2,0 - - 4 2 - - N 1016,2 45 0,0
23.11.2020 05:00:00 6,2 2,2 - - 15 8 - - WSW 1016,7 50 0,0
23.11.2020 04:00:00 5,7 1,5 - - 11 6 - - W 1017,1 50 0,0
23.11.2020 03:00:00 4,8 1,4 - - 9 5 - - WNW 1017,6 50 0,0
23.11.2020 02:00:00 4,5 2,0 - - 9 5 - - W 1017,9 40 0,0
23.11.2020 01:00:00 3,8 -0,1 - - 11 6 - - WNW 1018,0 50 0,0
23.11.2020 00:00:00 3,6 0,5 - - 2 1 - - NW 1018,4 50 0,0
22.11.2020 23:00:00 2,0 -0,4 - - 8 4 - - WNW 1018,6 50 0,0
22.11.2020 22:00:00 0,3 -2,0 - - 2 1 - - E 1018,6 50 0,0
22.11.2020 21:00:00 2,6 -0,1 - - 8 4 - - N 1018,4 50 0,0
22.11.2020 20:00:00 2,2 0,2 - - 8 4 - - NW 1018,1 45 0,0
22.11.2020 19:00:00 2,8 1,0 - - 8 4 - - N 1018,0 50 0,0
22.11.2020 18:00:00 2,2 -0,1 - - 5 3 - - WNW 1017,8 50 0,0
22.11.2020 17:00:00 3,6 0,5 - - 9 5 - - W 1017,5 50 0,0
22.11.2020 16:00:00 5,6 0,3 - - 13 7 - - W 1017,2 40 0,0
22.11.2020 15:00:00 6,7 0,9 - - 26 14 - - WSW 1017,1 50 0,0
22.11.2020 14:00:00 6,6 1,2 - - 26 14 - - W 1017,2 50 0,0
22.11.2020 13:00:00 7,1 0,6 - - 22 12 - - WSW 1017,0 30 0,0
22.11.2020 12:00:00 6,2 1,3 - - 18 10 - - W 1017,4 35 0,0
22.11.2020 11:00:00 6,3 0,7 - - 21 11 - - WSW 1017,4 26 0,0
22.11.2020 10:00:00 5,4 0,2 - - 18 10 - - WSW 1016,9 40 0,0
22.11.2020 09:00:00 5,0 0,7 6,4 8,4 16 9 - - WSW 1016,4 40 0,0
22.11.2020 08:00:00 0,2 -2,2 - - 5 3 - - NE 1015,8 26 0,0
22.11.2020 07:00:00 3,7 -0,5 - - 5 3 - - W 1014,5 35 0,0
22.11.2020 06:00:00 4,5 0,1 - - 15 8 - - W 1013,8 28 0,0
22.11.2020 05:00:00 5,0 0,3 - - 21 11 - - W 1013,3 40 0,0
22.11.2020 04:00:00 5,3 0,4 - - 22 12 - - W 1012,4 50 0,0
22.11.2020 03:00:00 5,2 -0,1 - - 24 13 48 26 W 1012,0 35 0,0
22.11.2020 02:00:00 5,3 -0,1 - - 28 15 57 31 W 1011,6 45 0,0
22.11.2020 01:00:00 5,4 0,4 - - 31 17 54 29 W 1011,5 45 0,0
22.11.2020 00:00:00 5,3 0,4 - - 35 19 54 29 W 1011,5 50 0,0
21.11.2020 23:00:00 5,2 0,8 - - 22 12 - - W 1011,2 30 0,0
21.11.2020 22:00:00 5,2 1,2 - - 28 15 54 29 W 1011,4 50 0,0
21.11.2020 21:00:00 5,7 0,8 - - 31 17 46 25 W 1011,2 45 0,0
21.11.2020 20:00:00 5,0 1,4 - - 22 12 55 30 W 1011,2 50 0,0
21.11.2020 19:00:00 5,9 0,7 - - 24 13 - - W 1011,6 45 0,0
21.11.2020 18:00:00 6,1 0,2 - - 24 13 48 26 W 1011,5 35 0,0
21.11.2020 17:00:00 5,1 0,4 - - 11 6 - - W 1011,2 50 0,0
21.11.2020 16:00:00 6,4 0,8 - - 24 13 - - W 1011,0 50 0,0
21.11.2020 15:00:00 7,6 -0,4 - - 29 16 55 30 WSW 1010,7 40 0,0
21.11.2020 14:00:00 8,4 1,5 - - 28 15 50 27 WSW 1010,5 50 0,0
21.11.2020 13:00:00 8,2 2,3 - - 24 13 48 26 W 1010,6 50 0,0
21.11.2020 12:00:00 8,7 2,1 - - 26 14 54 29 W 1010,5 40 0,0
21.11.2020 11:00:00 8,6 2,6 - - 29 16 55 30 W 1010,4 40 0,0
21.11.2020 10:00:00 7,9 3,4 - - 22 12 - - W 1009,7 40 0,0
21.11.2020 09:00:00 5,7 2,4 6,7 8,5 11 6 - - WNW 1009,6 50 0,0
21.11.2020 08:00:00 6,5 2,9 - - 22 12 - - W 1010,0 40 0,0
21.11.2020 07:00:00 7,7 2,3 - - 28 15 - - W 1009,3 26 0,0
21.11.2020 06:00:00 7,9 2,1 - - 29 16 46 25 W 1008,5 45 0,0
21.11.2020 05:00:00 7,6 2,7 - - 18 10 52 28 W 1007,9 50 0,0
21.11.2020 04:00:00 9,1 3,7 - - 31 17 46 25 W 1008,3 50 0,0
21.11.2020 03:00:00 9,5 4,8 - - 22 12 52 28 W 1008,3 50 0,0
21.11.2020 02:00:00 10,9 4,7 - - 34 18 65 35 W 1008,4 50 0,0
21.11.2020 01:00:00 11,2 4,9 - - 41 22 65 35 W 1008,2 45 0,0
21.11.2020 00:00:00 11,7 5,7 - - 37 20 70 38 W 1008,5 50 0,0
20.11.2020 23:00:00 12,1 5,3 - - 48 26 76 41 W 1008,6 45 0,0
20.11.2020 22:00:00 12,9 7,7 - - 29 16 52 28 WSW 1008,7 50 0,0
20.11.2020 21:00:00 12,9 8,2 - - 26 14 - - SW 1008,8 50 0,0
20.11.2020 20:00:00 12,7 8,2 - - 22 12 57 31 SW 1009,8 50 0,0
20.11.2020 19:00:00 12,7 7,9 - - 24 13 52 28 SW 1009,7 45 0,0
20.11.2020 18:00:00 12,8 7,7 - - 18 10 54 29 SSW 1010,8 50 0,0
20.11.2020 17:00:00 11,9 7,4 - - 22 12 55 30 SW 1011,7 50 0,0
20.11.2020 16:00:00 11,4 7,0 - - 29 16 52 28 SW 1012,3 50 0,0
20.11.2020 15:00:00 10,5 6,9 - - 9 5 - - NW 1013,2 50 0,0
20.11.2020 14:00:00 10,6 6,7 - - 18 10 - - SSW 1014,3 45 0,0
20.11.2020 13:00:00 9,6 5,7 - - 21 11 - - SSW 1016,5 50 0,0
20.11.2020 12:00:00 7,7 4,7 - - 9 5 - - SSW 1018,6 50 0,0
20.11.2020 11:00:00 6,7 4,5 - - 9 5 - - SSW 1019,8 50 0,0
20.11.2020 10:00:00 4,7 3,8 - - 9 5 - - ESE 1021,6 50 0,0
20.11.2020 09:00:00 0,6 0,2 6,9 8,7 4 2 - - ESE 1022,7 45 0,0
20.11.2020 08:00:00 -1,5 -2,0 - - 9 5 - - ESE 1023,7 45 0,0
20.11.2020 07:00:00 -2,3 -2,6 - - 9 5 - - E 1024,9 40 0,0
20.11.2020 06:00:00 -3,4 -3,7 - - 4 2 - - ESE 1025,7 50 0,0
20.11.2020 05:00:00 -3,7 -4,1 - - 2 1 - - SSW 1026,2 50 0,0
20.11.2020 04:00:00 -4,2 -4,5 - - 4 2 - - ENE 1027,1 50 0,0
20.11.2020 03:00:00 -4,8 -5,4 - - 8 4 - - W 1028,3 45 0,0
20.11.2020 02:00:00 -5,2 -6,0 - - 4 2 - - ESE 1029,2 50 0,0
20.11.2020 01:00:00 -4,6 -5,2 - - 4 2 - - E 1029,5 50 0,0
20.11.2020 00:00:00 -4,0 -4,9 - - 4 2 - - NNE 1030,0 40 0,0
19.11.2020 23:00:00 -3,1 -4,5 - - 4 2 - - WNW 1030,2 45 0,0
19.11.2020 22:00:00 -1,3 -2,7 - - 4 2 - - ESE 1029,9 50 0,0
19.11.2020 21:00:00 -0,2 -2,9 - - 4 2 - - N 1029,6 45 0,0
19.11.2020 20:00:00 1,4 -2,3 - - 9 5 - - NW 1029,4 45 0,0
19.11.2020 19:00:00 2,0 -1,9 - - 11 6 - - WNW 1029,5 50 0,0
19.11.2020 18:00:00 2,6 -1,6 - - 9 5 - - WNW 1028,8 50 0,0
19.11.2020 17:00:00 2,1 -1,1 - - 9 5 - - NW 1028,4 45 0,0
19.11.2020 16:00:00 2,3 -1,4 - - 13 7 - - WNW 1027,5 50 0,0
19.11.2020 15:00:00 3,2 -1,6 - - 15 8 - - WNW 1026,2 45 0,0
19.11.2020 14:00:00 3,4 -0,8 - - 22 12 - - WNW 1027,0 35 0,0
19.11.2020 13:00:00 3,6 -0,4 - - 22 12 - - W 1026,8 35 0,0
19.11.2020 12:00:00 3,0 -0,6 - - 18 10 - - WNW 1025,8 45 0,0
19.11.2020 11:00:00 3,3 -0,5 - - 22 12 - - WNW 1024,7 30 0,0
19.11.2020 10:00:00 2,4 -0,3 - - 18 10 - - WNW 1023,7 35 0,0
19.11.2020 09:00:00 1,0 -0,5 7,7 8,7 15 8 - - WNW 1022,7 29 0,0
19.11.2020 08:00:00 1,4 -0,4 - - 16 9 - - WNW 1021,5 18 0,2
19.11.2020 07:00:00 1,6 -0,3 - - 21 11 - - WNW 1020,4 22 0,0
19.11.2020 06:00:00 1,3 0,3 - - 18 10 - - WNW 1018,9 11 0,4
19.11.2020 05:00:00 2,8 -0,1 - - 22 12 - - NNW 1016,5 12 0,0
19.11.2020 04:00:00 2,9 0,1 - - 26 14 48 26 NW 1014,2 16 0,0
19.11.2020 03:00:00 3,1 0,9 - - 26 14 48 26 NW 1012,3 19 0,4
19.11.2020 02:00:00 3,0 1,6 - - 21 11 - - NW 1010,2 4,6 0,4
19.11.2020 01:00:00 3,6 2,1 - - 21 11 - - NW 1007,3 19 1,0
19.11.2020 00:00:00 4,3 2,9 - - 21 11 - - WNW 1004,8 21 1,0
18.11.2020 23:00:00 5,0 3,2 - - 22 12 - - W 1001,9 27 0,2
18.11.2020 22:00:00 6,7 3,3 - - 34 18 55 30 WNW 998,8 15 0,0
18.11.2020 21:00:00 6,7 2,1 - - 29 16 52 28 W 996,5 50 0,0
18.11.2020 20:00:00 5,9 1,3 - - 16 9 - - WSW 995,9 50 0,0
18.11.2020 19:00:00 6,0 1,3 - - 16 9 - - W 995,4 50 0,0
18.11.2020 18:00:00 6,5 1,5 - - 28 15 - - W 995,0 50 0,0
18.11.2020 17:00:00 7,3 1,4 - - 37 20 57 31 WSW 995,0 35 0,0
18.11.2020 16:00:00 8,5 3,7 - - 31 17 46 25 WSW 994,7 50 0,0
18.11.2020 15:00:00 10,4 5,9 - - 22 12 - - W 994,1 50 0,0
18.11.2020 14:00:00 11,5 8,0 - - 21 11 - - WSW 993,9 50 0,0
18.11.2020 13:00:00 11,6 10,0 - - 5 3 - - WNW 993,7 45 1,2
18.11.2020 12:00:00 13,2 10,8 - - 16 9 - - WSW 994,6 35 0,4
18.11.2020 11:00:00 13,4 10,6 - - 15 8 - - WSW 995,0 13 0,2
18.11.2020 10:00:00 14,2 10,3 - - 18 10 61 33 WSW 995,9 40 0,0
18.11.2020 09:00:00 13,9 9,8 7,7 8,7 21 11 67 36 WSW 996,4 50 0,0
18.11.2020 08:00:00 14,3 10,1 - - 41 22 68 37 SW 997,1 50 0,0
18.11.2020 07:00:00 13,8 9,9 - - 35 19 61 33 SSW 997,3 18 0,0
18.11.2020 06:00:00 13,6 9,6 - - 18 10 48 26 SSW 998,5 50 0,0
18.11.2020 05:00:00 13,6 10,1 - - 18 10 46 25 SW 999,7 45 0,0
18.11.2020 04:00:00 14,0 9,9 - - 24 13 52 28 SW 1000,4 50 0,0
18.11.2020 03:00:00 13,9 9,7 - - 29 16 59 32 SW 1001,1 50 0,0
18.11.2020 02:00:00 14,0 10,0 - - 34 18 54 29 WSW 1001,8 50 0,0
18.11.2020 01:00:00 14,3 10,3 - - 31 17 52 28 SW 1002,4 50 0,0
18.11.2020 00:00:00 14,9 10,4 - - 16 9 - - SW 1002,9 50 0,0
17.11.2020 23:00:00 15,1 10,9 - - 15 8 - - SW 1003,5 30 0,0
17.11.2020 22:00:00 15,2 11,1 - - 16 9 - - WSW 1003,9 35 0,0

tt = temperature
td = dewpoint
tt -20cm = temperature -20cm
tt -100cm = temperature -100cm
ff = wind speed
fx = gusts
dd = wind direction
ppp = reduced air pressure
vv = visibility
rr = precipitation

Next stations